STARLINK-36533, 67643

Orbit data source: Space-Track

STARLINK-36533, 67643 is a payload satellite owned by SpaceX/Seattle (US) in LEO that was launched on Fri, 30 Jan 2026 UTC via an FALCON 9 launch vehicle from the Air Force Eastern Test Range (AFETR). Payload-class satellites include a variety of spacecraft equipped with specific instruments for various scientific and technological missions. These include communications satellites like Starlink; space stations such as the ISS; scientific satellites like the Hubble; Earth observation satellites from companies like Planet Labs, Umbra, and HawkEye 360; GPS; miniature CubeSats for education and research; and military/defense satellites.

Loading next visibility...
Identifier
67643, 2026-020AC
Orbit
LEO
Country
Flag of USUS
Related business
Manufacturer
SpaceX/Seattle
Mission
Operational spacecraft
Bus & Motor
STARLINK V2MO, Unknown motor
Mass
575 kg wet, ~530 kg dry
Launch date (UTC)
2026-01-30 (2 months ago)
Launch vehicle
FALCON 9
Launch site
Air Force Eastern Test Range (AFETR)
Object type
Payload
Rocket body
Debris
Shape & HBR
Unknown shape, 17.7 m
Radar Cross Section
RCS unknown

Expand to show TLE details & history
Last TLE update: 4 hours ago

TLE from 4 hours ago
0 STARLINK-36533
1 67643U 26020AC  26104.83673613  .00004012  00000-0  15522-3 0  9991
2 67643  42.9987 295.4820 0001212 271.4986  88.5727 15.27582063 11648
Epoch: 2026-04-14T20:04Z
TLE epoch observation values (Epoch: 2026-04-14T20:04:54.001Z)
Latitude
-0.00001°
Longitude
151.24972°
Altitude
482.798 km
Speed
7.626 km/s
True Right ascension
19h 41m 55s
True Declination
0° 00' 00"
Sunlit
Object was in daylight at epoch
Visualization orbit readout
Latitude
Unknown
Longitude
Unknown
Altitude
Unknown
Speed
Unknown
Apparent Right ascension
Unknown
Apparent Declination
Unknown
Sunlit
N/A
Visualization observer readout
Local Sidereal Time
07:04:50
Azimuth
Unknown
Elevation
Unknown
Doppler factor
Unknown
Orbital elements
Apogee altitude
485.82 km
Perigee altitude
484.157 km
Semi-major axis
6,863.125 km
Eccentricity
0.00012
Inclination
42.9987°
RAAN
295.482°
Arg. of periapsis
271.4986°
True anomaly
88.58658°
Mean anomaly
88.5727°
Eccentric anomaly
88.57964°
Mean motion
3.81734 °/min
Orbital period
94.31 mins
BSTAR
0.00015522
Loading maneuver chart data...
Computing Atmospheric mass density...
Loading historical data...
Loading historical data...
Loading historical data...
Loading historical data...
Loading historical data...
Loading historical data...
Loading historical data...

Documentation

Showing up to 5 results
|